Regional Weather Roundup
Issued by NWS

Home | Current Version | Previous Version | Text Only | Print | Product List | Glossary Off
Versions: 1 2 3 4 5 6 7 8 9 10 11 12 13 14 15 16 17 18 19 20 21 22 23 24 25 26 27 28 29 30 31 32 33 34 35 36 37 38 39 40 41 42 43 44 45 46 47 48 49 50

000
ASUS45 KABQ 191601
RWRNM
WEATHER ROUNDUP FOR NEW MEXICO
NATIONAL WEATHER SERVICE ALBUQUERQUE NM
1000 AM MDT SAT APR 19 2014

NOTE: "FAIR" MEANS FEW OR NO CLOUDS BELOW 12,000 FEET AGL WITH NO
       SIGNIFICANT WEATHER OR OBSTRUCTIONS TO VISION.

      THIS PRODUCT IS RELEASED AS TWO VERSIONS.  ONE VERSION NEAR
      THE TOP OF THE HOUR CONTAINING PRELIMINARY DATA FROM ALBUQUERQUE
      AND OTHER STATIONS.  A FINAL VERSION WITH ADDITIONAL DATA IS
      ISSUED ABOUT 10 MINUTES AFTER THE HOUR.

NMZ501-503-504-510>518-191700-
NORTHWEST PLATEAU/NORTHCENTRAL MOUNTAINS

CITY           SKY/WX    TMP DP  RH WIND       PRES   REMARKS
FARMINGTON     SUNNY     58  39  49 S5        30.13R
SANTA FE       PTSUNNY   58  38  47 VRB5      30.16R
TAOS           MOSUNNY   54  36  50 NW6       30.22R

$$
NMZ402-403-502-505>509-191700-
WESTCENTRAL MOUNTAINS/SOUTHWEST MOUNTAINS

CITY           SKY/WX    TMP DP  RH WIND       PRES   REMARKS
GALLUP         PTSUNNY   53  36  52 CALM      30.16S
SILVER CITY    LGT RAIN  48  45  87 E7        30.19R

$$
NMZ407-409-411-412-191700-
SOUTHERN DESERTS

CITY           SKY/WX    TMP DP  RH WIND       PRES   REMARKS
DEMING         CLOUDY    54  50  86 N13       30.09F
HOLLOMAN AFB   TSTM      58  53  83 SW3       30.10R
T OR C         LGT RAIN  51  48  89 NW10      30.16R

$$
NMZ519>523-191700-
CENTRAL VALLEYS/CENTRAL HIGHLANDS

CITY           SKY/WX    TMP DP  RH WIND       PRES   REMARKS
ALBUQUERQUE    LGT RAIN  53  39  59 S25G35    30.18R
CLINES CORNERS MOSUNNY   56  39  53 SW10      30.17R
BELEN          RAIN      49  47  92 CALM      30.17F
SOCORRO        NOT AVBL

$$
NMZ524>526-539-540-191700-
SOUTHCENTRAL MOUNTAINS

CITY           SKY/WX    TMP DP  RH WIND       PRES   REMARKS
RUIDOSO        NOT AVBL

$$
NMZ527>531-191700-
NORTHEAST HIGHLANDS/NORTHEAST PLAINS

CITY           SKY/WX    TMP DP  RH WIND       PRES   REMARKS
LAS VEGAS      SUNNY     59  34  39 SW13G22   30.15F
RATON          SUNNY     62  37  39 S15       30.08F
CLAYTON        MOSUNNY   66  39  37 SW16G29   30.06F

$$
NMZ532>537-191700-
EASTCENTRAL PLAINS

CITY           SKY/WX    TMP DP  RH WIND       PRES   REMARKS
TUCUMCARI      MOSUNNY   68  45  43 S8        30.04R
CANNON AFB     SUNNY     65  47  52 S14G21    30.09S
CLOVIS AIRPORT MOSUNNY   64  48  55 S18       30.12F

$$
NMZ028-029-538-191700-
SOUTHEAST PLAINS

CITY           SKY/WX    TMP DP  RH WIND       PRES   REMARKS
ROSWELL        CLOUDY    61  50  67 S17       30.11R
CARLSBAD       RAIN      58  55  90 N10       30.08R FOG
HOBBS          LGT RAIN  59  50  72 E9        30.10F


$$



USA.gov is the U.S. government's official web portal to all federal, state and local government web resources and services.